Weather Service Report


452 
ASUS44 KMEG 250210
RWRMEG
MEMPHIS CWA HOURLY WEATHER ROUNDUP
NATIONAL WEATHER SERVICE MEMPHIS TN
900 PM CDT FRI APR 24 2015

...WEST TENNESSEE...
  
CITY           SKY/WX    TMP DP  RH WIND       PRES   REMARKS
MEMPHIS INTL   RAIN      56  54  93 CALM      29.89R FOG              
NWS MEMPHIS      N/A     55 N/A N/A MISG        N/A                   
JACKSON        LGT RAIN  55  52  89 CALM      29.89R                  
LEXINGTON      MOCLDY    54  54 100 E5        29.87F                  
SAVANNAH       CLOUDY    55  32  41 CALM      29.86F                  
DYERSBURG      CLOUDY    54  41  62 SE3       29.88F                  
UNION CITY     CLOUDY    54  32  43 S8        29.86R                  
PARIS          MOCLDY    54  48  82 SE7       29.88R                  


...EASTERN ARKANSAS...
  
CITY           SKY/WX    TMP DP  RH WIND       PRES   REMARKS
JONESBORO      LGT RAIN  54  54 100 S10       29.84F                  
WEST MEMPHIS   RAIN      55  55 100 SE7       29.86F                  
BATESVILLE     CLOUDY    57  55  94 SE10      29.79F                  
NEWPORT        LGT RAIN  56  56 100 S8        29.85R                  
WALNUT RIDGE   CLOUDY    55  52  88 S7        29.82F                  
BLYTHEVILLE    LGT RAIN  55  55 100 S7        29.87F                  
SEARCY         LGT RAIN  57  56  96 CALM      29.88R                  
STUTTGART      CLOUDY    57  55  94 NE12      29.82F                  
PINE BLUFF     RAIN      58  57  97 E9        29.80F                  
MONTICELLO     CLOUDY    60  59  96 E10       29.79R                  


...NORTH MISSISSIPPI...
  
CITY           SKY/WX    TMP DP  RH WIND       PRES   REMARKS
TUPELO         RAIN      60  55  83 S7        29.86F                  
OXFORD         CLOUDY    55  54  94 SE8G16    29.87R FOG              
OLIVE BRANCH   CLOUDY    54  54 100 CALM      29.89R                  
CLARKSDALE       N/A     57  57 100 N10       29.88R                  
CORINTH        CLOUDY    57  54  88 SE10      29.85S                  
GREENWOOD      LGT RAIN  65  60  84 MISG      29.79F                  
COLUMBUS       CLOUDY    64  57  78 E2        29.87R                  
STARKVILLE     MOCLDY    63  55  77 E6        29.84F                  
GOLDEN TRIANGL CLOUDY    64  55  72 SE7       29.87S                  


...SOUTHEAST MISSOURI...
  
CITY           SKY/WX    TMP DP  RH WIND       PRES   REMARKS
WEST PLAINS    CLOUDY    52  50  93 S13G22    29.76F FOG              
POPLAR BLUFF   CLOUDY    56  49  77 S13       29.80F                  
CAPE GIRARDEAU CLOUDY    57  45  64 SE6       29.83S                  


...NORTHWEST ALABAMA...
  
CITY           SKY/WX    TMP DP  RH WIND       PRES   REMARKS
MUSCLE SHOALS  LGT RAIN  59  50  72 E7        29.91S                  


...MIDDLE TENNESSEE...
  
CITY           SKY/WX    TMP DP  RH WIND       PRES   REMARKS
NASHVILLE      LGT RAIN  59  44  57 S5        29.93S                  
CLARKSVILLE    CLOUDY    58  41  53 S6        29.89F                  
COLUMBIA       CLOUDY    54  32  43 CALM      29.90F                  


...WESTERN KENTUCKY...
  
CITY           SKY/WX    TMP DP  RH WIND       PRES   REMARKS
PADUCAH        CLOUDY    58  42  55 S7        29.84F                  
FORT CAMPBELL  CLOUDY    59  40  49 SE3       29.88F                  


...CENTRAL ARKANSAS...
  
CITY           SKY/WX    TMP DP  RH WIND       PRES   REMARKS
LITTLE ROCK    TSTM      59  55  88 NE9       29.83S FOG              


SKY/WX REPORTED AS FAIR MEANS FEW OR NO CLOUDS BELOW
12 THOUSAND FEET.



455 
ASUS44 KMEG 250210
RWRTN 
TENNESSEE HOURLY STATE WEATHER ROUNDUP
NATIONAL WEATHER SERVICE MEMPHIS TN
900 PM CDT FRI APR 24 2015

TNZ002-004-019-021-049-052-054-088>092-250300-
WEST TENNESSEE
  
CITY           SKY/WX    TMP DP  RH WIND       PRES   REMARKS
MEMPHIS INTL   RAIN      56  54  93 CALM      29.89R FOG              
NWS MEMPHIS      N/A     55 N/A N/A MISG        N/A                   
JACKSON        LGT RAIN  55  52  89 CALM      29.89R                  
DYERSBURG      CLOUDY    54  41  62 SE3       29.88F                  
UNION CITY     CLOUDY    54  32  43 S8        29.86R                  
PARIS          MOCLDY    54  48  82 SE7       29.88R                  
LEXINGTON      MOCLDY    54  54 100 E5        29.87F                  
SAVANNAH       CLOUDY    55  32  41 CALM      29.86F                  
$$

TNZ008-025-027-028-033-062-065-066-250300-
NORTH MIDDLE TENNESSEE
  
CITY           SKY/WX    TMP DP  RH WIND       PRES   REMARKS
NASHVILLE      LGT RAIN  59  44  57 S5        29.93S                  
CLARKSVILLE    CLOUDY    58  41  53 S6        29.89F                  
SMYRNA         CLOUDY    59  44  57 SW5       29.94S                  
COOKEVILLE     CLEAR     57  46  67 CALM      29.93S                  
CROSSVILLE     CLOUDY    59  31  34 S5        29.95F                  
$$

TNZ061-075-076-078-094-096-097-250300-
SOUTH MIDDLE TENNESSEE
  
CITY           SKY/WX    TMP DP  RH WIND       PRES   REMARKS
FAYETTEVILLE     N/A     57  48  72 E3        29.93F                  
TULLAHOMA      MOCLDY    57  45  62 S5        29.95F                  
WINCHESTER     CLOUDY    63  45  51 CALM      29.95F                  
MCMINNVILLE    PTCLDY    57  46  67 CALM      29.93F                  
COLUMBIA       CLOUDY    54  32  43 CALM      29.90F                  
SHELBYVILLE    CLOUDY    55  52  88 CALM      29.94F                  
$$

TNZ017-018-042-046-047-250300-
NORTHEAST TENNESSEE
  
CITY           SKY/WX    TMP DP  RH WIND       PRES   REMARKS
TRI CITIES     MOCLDY    52  38  58 CALM      29.97F                  
ELIZABETHTON   CLEAR     46  34  61 CALM      29.98F                  
$$

TNZ012-013-036-069-073-074-250300-
CENTRAL EAST TENNESSEE
  
CITY           SKY/WX    TMP DP  RH WIND       PRES   REMARKS
KNOXVILLE      CLOUDY    57  40  52 CALM      29.95F                  
OAK RIDGE      CLOUDY    57  39  51 CALM      29.96F                  
GATLINBURG     PTCLDY    54  39  58 CALM      29.95F                  
MORRISTOWN     CLEAR     54  39  58 CALM      29.96F                  
$$

TNZ083-085-099-250300-
SOUTHEAST TENNESSEE
  
CITY           SKY/WX    TMP DP  RH WIND       PRES   REMARKS
CHATTANOOGA    CLOUDY    62  45  53 N5        29.96S                  
$$

SKY/WX REPORTED AS FAIR MEANS FEW OR NO CLOUDS BELOW
12 THOUSAND FEET.


Return to Home page


Western Regional Climate Center, wrcc@dri.edu